Back to catalog

STARLINK-32265

AliveCommunicationsVLEO
NORAD 60415·PAYLOAD·🇺🇸 United States

Launched Aug 10, 2024 from Cape Canaveral Space Force Station

Loading…

Next Passes (next 24 hours)

TLE

FreshSource: CelesTrak SupGP

Epoch: Sep 14, 2026, 21:25 UTC

1 60415C 24141T   26257.89284722  .00019553  00000+0  57784-3 0  2575
2 60415  53.1571  79.6580 0001232  85.7261  10.7960 15.34372439    17

Track STARLINK-32265 in real time with AllMySat

Download on the App Store